Time,TemperatureF,DewpointF,PressureIn,WindDirection,WindDirectionDegrees,WindSpeedMPH,WindSpeedGustMPH,Humidity,HourlyPrecipIn,Conditions,Clouds,dailyrainin,SoftwareType,DateUTC
2013-01-12 00:12:00,41.0,36.0,-100.00,SSE,160,3.0,13.0,84,0.00,,,-99.99,,2013-01-12 05:12:00,
2013-01-12 00:22:00,41.0,36.0,-100.00,SSE,160,3.0,13.0,84,0.00,,,-99.99,,2013-01-12 05:22:00,
2013-01-12 00:32:00,41.0,36.0,-100.00,SSE,160,3.0,13.0,84,0.00,,,-99.99,,2013-01-12 05:32:00,
2013-01-12 00:42:00,41.0,36.0,-100.00,SSE,160,3.0,13.0,84,0.00,,,-99.99,,2013-01-12 05:42:00,
2013-01-12 00:52:00,42.0,37.0,-100.00,South,175,2.0,12.0,84,0.00,,,-99.99,,2013-01-12 05:52:00,
2013-01-12 01:12:00,42.0,37.0,-100.00,South,175,2.0,12.0,84,0.00,,,-99.99,,2013-01-12 06:12:00,
2013-01-12 01:22:00,42.0,37.0,-100.00,South,175,2.0,12.0,84,0.00,,,-99.99,,2013-01-12 06:22:00,
2013-01-12 01:32:00,42.0,37.0,-100.00,South,175,2.0,12.0,84,0.00,,,-99.99,,2013-01-12 06:32:00,
2013-01-12 01:42:00,42.0,37.0,-100.00,South,175,2.0,12.0,84,0.00,,,-99.99,,2013-01-12 06:42:00,
2013-01-12 03:42:00,40.0,36.0,-100.00,SSE,150,1.0,7.0,84,0.00,,,-99.99,,2013-01-12 08:42:00,
2013-01-12 03:52:00,40.0,36.0,-100.00,SSE,150,1.0,7.0,84,0.00,,,-99.99,,2013-01-12 08:52:00,
2013-01-12 04:12:00,41.0,37.0,-100.00,SSW,210,1.0,9.0,84,0.00,,,-99.99,,2013-01-12 09:12:00,
2013-01-12 04:22:00,41.0,37.0,-100.00,SSW,210,1.0,9.0,84,0.00,,,-99.99,,2013-01-12 09:22:00,
2013-01-12 04:32:00,41.0,37.0,-100.00,SSW,210,1.0,9.0,84,0.00,,,-99.99,,2013-01-12 09:32:00,
2013-01-12 04:42:00,41.0,37.0,-100.00,SSW,210,1.0,9.0,84,0.00,,,-99.99,,2013-01-12 09:42:00,
2013-01-12 04:52:00,41.0,37.0,-100.00,SSW,210,1.0,9.0,84,0.00,,,-99.99,,2013-01-12 09:52:00,
2013-01-12 05:12:00,40.0,36.0,-100.00,SSE,155,1.0,6.0,84,0.00,,,-99.99,,2013-01-12 10:12:00,
2013-01-12 05:22:00,40.0,36.0,-100.00,SSE,155,1.0,6.0,84,0.00,,,-99.99,,2013-01-12 10:22:00,
2013-01-12 05:32:00,40.0,36.0,-100.00,SSE,155,1.0,6.0,84,0.00,,,-99.99,,2013-01-12 10:32:00,
2013-01-12 05:42:00,40.0,36.0,-100.00,SSE,155,1.0,6.0,84,0.00,,,-99.99,,2013-01-12 10:42:00,
2013-01-12 06:12:00,41.0,36.0,-100.00,WSW,255,2.0,14.0,84,0.00,,,-99.99,,2013-01-12 11:12:00,
2013-01-12 06:22:00,41.0,36.0,-100.00,WSW,255,2.0,14.0,84,0.00,,,-99.99,,2013-01-12 11:22:00,
2013-01-12 06:32:00,41.0,36.0,-100.00,WSW,255,2.0,14.0,84,0.00,,,-99.99,,2013-01-12 11:32:00,
2013-01-12 06:42:00,41.0,36.0,-100.00,WSW,255,2.0,14.0,84,0.00,,,-99.99,,2013-01-12 11:42:00,
2013-01-12 06:52:00,41.0,36.0,-100.00,WSW,255,2.0,14.0,84,0.00,,,-99.99,,2013-01-12 11:52:00,
2013-01-12 07:12:00,40.0,35.0,-100.00,WSW,245,8.0,18.0,82,0.00,,,-99.99,,2013-01-12 12:12:00,
2013-01-12 07:22:00,40.0,35.0,-100.00,WSW,245,8.0,18.0,82,0.00,,,-99.99,,2013-01-12 12:22:00,
2013-01-12 07:32:00,40.0,35.0,-100.00,WSW,245,8.0,18.0,82,0.00,,,-99.99,,2013-01-12 12:32:00,
2013-01-12 07:42:00,40.0,35.0,-100.00,WSW,245,8.0,18.0,82,0.00,,,-99.99,,2013-01-12 12:42:00,
2013-01-12 07:51:00,39.0,24.0,-100.00,West,265,7.0,17.0,55,0.00,,,-99.99,,2013-01-12 12:51:00,
2013-01-12 07:52:00,40.0,35.0,-100.00,WSW,245,8.0,18.0,82,0.00,,,-99.99,,2013-01-12 12:52:00,
2013-01-12 08:12:00,39.0,24.0,-100.00,West,265,7.0,17.0,55,0.00,,,-99.99,,2013-01-12 13:12:00,
2013-01-12 08:22:00,39.0,24.0,-100.00,West,265,7.0,17.0,55,0.00,,,-99.99,,2013-01-12 13:22:00,
2013-01-12 08:33:00,39.0,24.0,-100.00,West,265,7.0,17.0,55,0.00,,,-99.99,,2013-01-12 13:33:00,
2013-01-12 08:42:00,39.0,24.0,-100.00,West,265,7.0,17.0,55,0.00,,,-99.99,,2013-01-12 13:42:00,
2013-01-12 09:12:00,34.0,19.0,-100.00,WSW,255,9.0,22.0,54,0.00,,,-99.99,,2013-01-12 14:12:00,
2013-01-12 09:22:00,34.0,19.0,-100.00,WSW,255,9.0,22.0,54,0.00,,,-99.99,,2013-01-12 14:22:00,
2013-01-12 09:33:00,34.0,19.0,-100.00,WSW,255,9.0,22.0,54,0.00,,,-99.99,,2013-01-12 14:33:00,
2013-01-12 09:43:00,34.0,19.0,-100.00,WSW,255,9.0,22.0,54,0.00,,,-99.99,,2013-01-12 14:43:00,
2013-01-12 09:53:00,34.0,19.0,-100.00,WSW,255,9.0,22.0,54,0.00,,,-99.99,,2013-01-12 14:53:00,
2013-01-12 10:12:00,31.0,16.0,-100.00,West,260,11.0,24.0,53,0.00,,,-99.99,,2013-01-12 15:12:00,
2013-01-12 10:22:00,31.0,16.0,-100.00,West,260,11.0,24.0,53,0.00,,,-99.99,,2013-01-12 15:22:00,
2013-01-12 10:33:00,31.0,16.0,-100.00,West,260,11.0,24.0,53,0.00,,,-99.99,,2013-01-12 15:33:00,
2013-01-12 10:43:00,31.0,16.0,-100.00,West,260,11.0,24.0,53,0.00,,,-99.99,,2013-01-12 15:43:00,
2013-01-12 10:52:00,31.0,16.0,-100.00,West,260,11.0,24.0,53,0.00,,,-99.99,,2013-01-12 15:52:00,
2013-01-12 12:52:00,28.0,11.0,-100.00,WSW,240,7.0,17.0,49,0.00,,,-99.99,,2013-01-12 17:52:00,
2013-01-12 13:12:00,28.0,11.0,-100.00,WSW,240,7.0,17.0,49,0.00,,,-99.99,,2013-01-12 18:12:00,
2013-01-12 13:23:00,28.0,11.0,-100.00,WSW,240,7.0,17.0,49,0.00,,,-99.99,,2013-01-12 18:23:00,
2013-01-12 13:33:00,28.0,11.0,-100.00,WSW,240,7.0,17.0,49,0.00,,,-99.99,,2013-01-12 18:33:00,
2013-01-12 13:42:00,28.0,11.0,-100.00,WSW,240,7.0,17.0,49,0.00,,,-99.99,,2013-01-12 18:42:00,
2013-01-12 14:12:00,27.0,9.0,-100.00,West,270,6.0,18.0,46,0.00,,,-99.99,,2013-01-12 19:12:00,
2013-01-12 14:23:00,27.0,9.0,-100.00,West,270,6.0,18.0,46,0.00,,,-99.99,,2013-01-12 19:23:00,
2013-01-12 14:33:00,27.0,9.0,-100.00,West,270,6.0,18.0,46,0.00,,,-99.99,,2013-01-12 19:33:00,
2013-01-12 14:43:00,27.0,9.0,-100.00,West,270,6.0,18.0,46,0.00,,,-99.99,,2013-01-12 19:43:00,
2013-01-12 14:52:00,27.0,9.0,-100.00,West,270,6.0,18.0,46,0.00,,,-99.99,,2013-01-12 19:52:00,
2013-01-12 15:12:00,26.0,7.0,-100.00,West,275,7.0,17.0,46,0.00,,,-99.99,,2013-01-12 20:12:00,
2013-01-12 15:22:00,26.0,7.0,-100.00,West,275,7.0,17.0,46,0.00,,,-99.99,,2013-01-12 20:22:00,
2013-01-12 15:33:00,26.0,7.0,-100.00,West,275,7.0,17.0,46,0.00,,,-99.99,,2013-01-12 20:33:00,
2013-01-12 15:42:00,26.0,7.0,-100.00,West,275,7.0,17.0,46,0.00,,,-99.99,,2013-01-12 20:42:00,
2013-01-12 15:51:00,24.0,6.0,-100.00,West,275,6.0,17.0,45,0.00,,,-99.99,,2013-01-12 20:51:00,
2013-01-12 16:12:00,24.0,6.0,-100.00,West,275,6.0,17.0,45,0.00,,,-99.99,,2013-01-12 21:12:00,
2013-01-12 16:22:00,24.0,6.0,-100.00,West,275,6.0,17.0,45,0.00,,,-99.99,,2013-01-12 21:22:00,
2013-01-12 16:33:00,24.0,6.0,-100.00,West,275,6.0,17.0,45,0.00,,,-99.99,,2013-01-12 21:33:00,
2013-01-12 16:43:00,24.0,6.0,-100.00,West,275,6.0,17.0,45,0.00,,,-99.99,,2013-01-12 21:43:00,
2013-01-12 17:23:00,23.0,6.0,-100.00,WSW,250,4.0,11.0,47,0.00,,,-99.99,,2013-01-12 22:23:00,
2013-01-12 17:33:00,23.0,6.0,-100.00,WSW,250,4.0,11.0,47,0.00,,,-99.99,,2013-01-12 22:33:00,
2013-01-12 17:43:00,23.0,6.0,-100.00,WSW,250,4.0,11.0,47,0.00,,,-99.99,,2013-01-12 22:43:00,
2013-01-12 17:52:00,23.0,6.0,-100.00,WSW,250,4.0,11.0,47,0.00,,,-99.99,,2013-01-12 22:52:00,
2013-01-12 18:22:00,21.0,3.0,-100.00,WNW,295,6.0,17.0,46,0.00,,,-99.99,,2013-01-12 23:22:00,
2013-01-12 18:33:00,21.0,3.0,-100.00,WNW,295,6.0,17.0,46,0.00,,,-99.99,,2013-01-12 23:33:00,
2013-01-12 18:43:00,21.0,3.0,-100.00,WNW,295,6.0,17.0,46,0.00,,,-99.99,,2013-01-12 23:43:00,
2013-01-12 18:53:00,21.0,3.0,-100.00,WNW,295,6.0,17.0,46,0.00,,,-99.99,,2013-01-12 23:53:00,
2013-01-12 20:12:00,19.0,3.0,-100.00,West,265,4.0,13.0,49,0.00,,,-99.99,,2013-01-13 01:12:00,
2013-01-12 20:22:00,19.0,3.0,-100.00,West,265,4.0,13.0,49,0.00,,,-99.99,,2013-01-13 01:22:00,
2013-01-12 20:33:00,19.0,3.0,-100.00,West,265,4.0,13.0,49,0.00,,,-99.99,,2013-01-13 01:33:00,
2013-01-12 20:43:00,19.0,3.0,-100.00,West,265,4.0,13.0,49,0.00,,,-99.99,,2013-01-13 01:43:00,
2013-01-12 20:52:00,19.0,3.0,-100.00,West,265,4.0,13.0,49,0.00,,,-99.99,,2013-01-13 01:52:00,
2013-01-12 21:12:00,18.0,4.0,-100.00,WNW,285,4.0,10.0,52,0.00,,,-99.99,,2013-01-13 02:12:00,
2013-01-12 21:22:00,18.0,4.0,-100.00,WNW,285,4.0,10.0,52,0.00,,,-99.99,,2013-01-13 02:22:00,
2013-01-12 21:32:00,18.0,4.0,-100.00,WNW,285,4.0,10.0,52,0.00,,,-99.99,,2013-01-13 02:32:00,
2013-01-12 21:42:00,18.0,4.0,-100.00,WNW,285,4.0,10.0,52,0.00,,,-99.99,,2013-01-13 02:42:00,
2013-01-12 21:52:00,18.0,4.0,-100.00,WNW,285,4.0,10.0,52,0.00,,,-99.99,,2013-01-13 02:52:00,
2013-01-12 22:12:00,18.0,2.0,-100.00,WNW,295,7.0,14.0,50,0.00,,,-99.99,,2013-01-13 03:12:00,
2013-01-12 22:22:00,18.0,2.0,-100.00,WNW,295,7.0,14.0,50,0.00,,,-99.99,,2013-01-13 03:22:00,
2013-01-12 22:33:00,18.0,2.0,-100.00,WNW,295,7.0,14.0,50,0.00,,,-99.99,,2013-01-13 03:33:00,
2013-01-12 22:42:00,18.0,2.0,-100.00,WNW,295,7.0,14.0,50,0.00,,,-99.99,,2013-01-13 03:42:00,
2013-01-12 22:51:00,17.0,1.0,-100.00,NW,315,4.0,14.0,50,0.00,,,-99.99,,2013-01-13 03:51:00,
2013-01-12 22:52:00,18.0,2.0,-100.00,WNW,295,7.0,14.0,50,0.00,,,-99.99,,2013-01-13 03:52:00,
2013-01-12 23:12:00,17.0,1.0,-100.00,NW,315,4.0,14.0,50,0.00,,,-99.99,,2013-01-13 04:12:00,
2013-01-12 23:22:00,17.0,1.0,-100.00,NW,315,4.0,14.0,50,0.00,,,-99.99,,2013-01-13 04:22:00,
2013-01-12 23:33:00,17.0,1.0,-100.00,NW,315,4.0,14.0,50,0.00,,,-99.99,,2013-01-13 04:33:00,
2013-01-12 23:42:00,17.0,1.0,-100.00,NW,315,4.0,14.0,50,0.00,,,-99.99,,2013-01-13 04:42:00,
2013-01-12 23:52:00,15.0,0.0,-100.00,NW,310,4.0,8.0,50,0.00,,,-99.99,,2013-01-13 04:52:00,